EHI
0 0 0 0 0 0 0 0 0 0 0 0 0 0 0 0 0 0 0 0 0 0 0 0 0 0 0 0 0 0 0 0 0 0 0 0 0 0 0 0 0 0 0 0
0 0 0 0 0 0 0 0 0 0 0 0 0 0 0 0 0 0 0 0 0 0 0 0 0 0 0 0 0 0 0 0 0 0 0 0 0 0 0 0 0 0 0 0
0 0 0 0 0 0 0 0 0 0 0 0 0 0 0 0 0 0 0 0 0 0 0 0 0 0 0 0 0 0 0 0 0 0 0 0 0 0 0 0 0 0 0 0
0 0 0 0 0 0 0 0 0 0 0 0 0 0 0 0 0 0 0 0 0 0 0 0 0 0 0 0 0 0 0 0 0 0 0 0 0 0 0 0 0 0 0 0
0 0 0 0 0 0 0 0 0 0 0 0 0 0 0 0 0 0 0 0 0 0 0 0 0 0 0 0 0 0 0 0 0 0 0 0 0 0 0 0 0 0 0 0
0 0 0 0 0 0 0 0 0 0 0 0 0 0 0 0 0 0 0 0 0 0 0 0 0 0 0 0 0 0 0 0 0 0 0 0 0 0 0 0 0 0 0 0
0 0 0 0 0 0 0 0 0 0 0 0 0 0 0 0 0 0 0 0 0 0 0 0 0 0 0 0 0 0 0 0 0 0 0 0 0 0 0 0 0 0 0 0
0 0 0 0 0 0 0 0 0 0 0 0 0 0 0 0 0 0 0 0 0 0 0 0 0 0 0 0 0 0 0 0 0 0 0 0 0 0 0 0 0 0 0 0
0 0 0 0 0 0 0 0 0 0 0 0 0 0 0 0 0 0 0 0 0 0 0 0 0 0 0 0 0 0 0 0 0 0 0 0 0 0 0 0 0 0 0 0
0 0 0 0 0 0 0 0 0 0 0 0 0 0 0 0 0 0 0 0 0 0 0 0 0 0 0 0 0 0 0 0 0 0 0 0 0 0 0 0 0 0 0 0
0 0 0 0 0 0 0 0 0 0 0 0 0 0 0 0 0 0 0 0 0 0 0 0 0 0 0 0 0 0 0 0 0 0 0 0 0 0 0 0 0 0 0 0
0 0 0 0 0 0 0 0 0 0 0 0 0 0 0 0 0 0 0 0 0 0 0 0 0 0 0 0 0 0 0 0 0 0 0 0 0 0 0 0 0 0 0 0
0 0 0 0 0 0 0 0 0 0 0 0 0 0 0 0 0 0 0 0 0 0 0 0 0 0 0 0 0 0 0 0 0 0 0 0 0 0 0 0 0 0 0 0
0 0 0 0 0 0 0 0 0 0 0 0 0 0 0 0 0 0 0 0 0 0 0 0 0 0 0 0 0 0 0 0 0 0 0 0 0 0 0 0 0 0 0 0
0 0 0 0 0 0 0 0 0 0 0 0 0 0 0 0 0 0 0 0 0 0 0 0 0 0 0 0 0 0 0 0 0 0 0 0 0 0 0 0 0 0 0 0
0 0 0 0 0 0 0 0 0 0 0 0 0 0 0 0 0 0 0 0 0 0 0 0 0 0 0 0 0 0 0 0 0 0 0 0 0 0 0 0 0 0 0 0
0 0 0 0 0 0 0 0 0 0 0 0 0 0 0 0 0 0 0 0 0 0 0 0 0 0 0 0 0 0 0 0 0 0 0 0 0 0 0 0 0 0 0 0
0 0 0 0 0 0 0 0 0 0 0 0 0 0 0 0 0 0 0 0 0 0 0 0 0 0 0 0 0 0 0 0 0 0 0 0 0 0 0 0 0 0 0 0
0 0 0 0 0 0 0 0 0 0 0 0 0 0 0 0 0 0 0 0 0 0 0 0 0 0 0 0 0 0 0 0 0 0 0 0 0 0 0 0 0 0 0 0
0 0 0 0 0 0 0 0 0 0 0 0 0 0 0 0 0 0 0 0 0 0 0 0 0 0 0 0 0 0 0 0 0 0 0 0 0 0 0 0 0 0 0 0
0 0 0 0 0 0 0 0 0 0 0 0 0 0 0 0 0 0 0 0 0 0 0 0 0 0 0 0 0 0 0 0 0 0 0 0 0 0 0 0 0 0 0 0
0 0 0 0 0 0 0 0 0 0 0 0 0 0 0 0 0 0 0 0 0 0 0 0 0 0 0 0 0 0 0 0 0 0 0 0 0 0 0 0 0 0 0 0
0 0 0 0 0 0 0 0 0 0 0 0 0 0 0 0 0 0 0 0 0 0 0 0 0 0 0 0 0 0 0 0 0 0 0 0 0 0 0 0 0 0 0 0
0 0 0 0 0 0 0 0 0 0 0 0 0 0 0 0 0 0 0 0 0 0 0 0 0 0 0 0 0 0 0 0 0 0 0 0 0 0 0 0 0 0 0 0
0 0 0 0 0 0 0 0 0 0 0 0 0 0 0 0 0 0 0 0 0 0 0 0 0 0 0 0 0 0 0 0 0 0 0 0 0 0 0 0 0 0 0 0
0 0 0 0 0 0 0 0 0 0 0 0 0 0 0 0 0 0 0 0 0 0 0 0 0 0 0 0 0 0 0 0 0 0 0 0 0 0 0 0 0 0 0 0
0 0 0 0 0 0 0 0 0 0 0 0 0 0 0 0 0 0 0 0 0 0 0 0 0 0 0 0 0 0 0 0 0 0 0 0 0 0 0 0 0 0 0 0
Wind_Speed
6 5 3 5 6 7 8 9 10 10 10 12 10 10 8 6 5 5 5 6 7 7 6 5 5 4 4 5 4 4 3 4 5 4 4 4 4 4 3 3 4 3 3 4
3 3 4 5 7 8 9 6 8 6 10 11 7 4 5 6 7 8 8 7 7 7 6 6 5 5 4 4 3 3 3 4 3 3 3 4 4 4 4 4 4 3 3 4
4 4 2 7 10 10 8 8 10 12 14 6 5 9 11 10 9 10 9 8 8 7 7 6 6 5 5 4 2 2 3 3 3 3 3 4 3 3 4 4 3 4 4 4
2 1 6 11 4 7 8 9 10 9 8 9 11 9 6 8 10 10 9 8 8 7 6 5 4 4 3 2 2 2 2 2 2 2 3 3 3 4 4 3 3 4 4 4
4 3 8 11 6 6 7 9 9 12 10 6 3 2 3 7 9 9 9 7 7 6 6 5 4 4 4 3 2 2 1 2 2 2 2 3 3 4 3 3 3 3 3 4
4 3 6 11 5 3 4 7 7 10 10 7 9 4 8 7 8 7 6 6 5 5 5 5 4 5 5 4 3 2 2 2 2 1 2 3 4 4 2 2 3 3 3 3
5 5 10 11 3 4 3 9 5 6 8 11 12 10 6 7 7 7 7 6 7 7 6 5 5 6 6 4 3 2 1 0 1 1 1 2 2 2 2 2 2 2 3 3
5 4 11 5 5 7 9 5 3 4 7 11 9 4 5 8 8 9 8 7 7 7 5 4 5 7 6 4 2 1 2 2 2 2 2 2 2 2 2 2 2 2 3 4
10 10 7 3 7 7 3 5 5 4 5 8 6 6 7 7 8 9 9 8 7 8 7 4 4 6 6 3 3 3 3 3 2 3 3 3 2 3 3 2 2 2 2 3
5 10 8 8 8 7 6 7 7 6 5 8 8 8 8 8 8 9 8 8 8 9 8 5 4 4 5 4 4 5 4 3 2 3 3 4 3 2 2 2 2 2 2 3
6 9 10 8 5 6 6 6 7 6 6 8 9 8 10 10 10 10 9 8 8 9 9 7 6 5 4 4 5 6 4 3 3 3 3 3 3 2 2 2 2 2 1 1
9 9 6 11 10 8 8 9 8 6 5 6 9 10 10 10 10 10 10 9 9 9 9 8 7 6 4 4 6 6 4 3 2 2 2 2 2 3 5 5 8 8 7 4
9 9 8 10 10 9 9 10 9 8 9 8 8 9 11 9 9 10 11 11 12 11 10 9 8 6 5 5 6 6 5 3 2 2 2 2 2 2 2 5 7 9 10 9
7 6 8 9 11 12 10 10 8 7 7 7 7 8 9 8 10 12 13 12 11 11 10 9 8 7 5 6 6 6 5 5 4 2 2 2 2 1 1 2 3 3 6 8
8 8 10 12 12 11 9 7 6 7 6 6 6 9 12 13 14 13 12 12 12 11 10 9 9 7 5 6 7 6 5 3 3 2 2 2 2 2 2 2 2 2 3 5
12 10 8 9 11 11 9 7 8 10 8 7 8 10 11 11 11 12 13 15 15 14 12 10 9 7 6 7 7 5 4 7 5 3 2 2 2 2 2 2 2 2 2 2
9 10 11 12 13 12 11 10 10 10 8 8 9 8 10 12 12 13 12 11 11 11 11 10 9 7 7 7 7 5 4 4 7 4 2 2 2 1 1 1 1 1 1 2
7 8 9 10 11 12 12 10 8 8 7 6 8 10 13 16 16 15 14 12 11 9 8 8 8 8 7 7 6 5 4 3 3 3 2 2 2 1 1 1 0 1 1 2
11 11 12 11 10 10 10 10 8 6 4 6 10 12 12 12 13 14 15 15 15 12 9 8 15 10 7 8 8 5 5 4 3 2 2 2 2 1 1 0 0 1 1 1
13 13 14 13 12 10 10 9 6 3 3 7 8 9 10 11 13 15 14 12 10 9 10 11 10 8 7 8 9 4 5 4 4 3 2 2 2 1 1 1 1 1 1 2
13 14 14 14 13 12 10 8 5 3 3 6 9 11 11 11 13 13 13 8 6 8 11 16 9 6 6 7 9 5 5 4 4 3 3 2 2 2 1 1 2 2 2 2
11 11 13 12 12 11 10 7 4 2 2 4 5 8 11 12 11 9 8 7 9 13 9 7 6 9 10 10 5 5 5 4 4 3 3 3 2 2 2 2 2 2 3 3
9 10 11 11 10 10 9 7 4 1 1 4 6 9 10 10 10 10 8 6 8 15 9 6 11 15 15 7 5 5 5 4 4 3 3 3 3 3 3 3 3 3 3 3
9 9 10 10 9 7 8 7 5 2 0 1 3 6 8 7 5 3 5 14 16 15 8 10 16 16 13 5 5 4 4 4 4 3 3 3 3 3 3 3 3 3 3 4
9 9 8 8 8 6 6 5 3 2 1 1 2 4 4 5 6 7 7 10 16 14 7 12 17 15 8 5 5 5 4 4 4 4 3 3 3 3 3 3 3 3 3 4
8 7 7 7 6 5 4 3 2 1 1 1 1 2 3 4 6 7 7 8 11 12 8 5 6 8 5 5 5 5 4 4 3 3 3 3 3 3 3 3 4 3 4 4
7 6 5 5 5 4 4 3 3 3 3 4 3 3 4 5 6 7 8 7 7 7 6 5 5 5 5 5 5 4 4 3 3 3 3 3 3 3 3 3 3 3 4 4
Wind_Direction
236 236 202 223 212 182 190 193 196 226 226 245 236 223 223 215 204 195 200 202 204 209 216 220 226 233 235 243 238 220 217 235 248 257 260 264 269 271 275 278 279 283 292 301
277 269 223 246 243 210 217 215 220 240 253 244 241 211 214 208 195 199 205 206 205 206 205 211 217 222 224 234 231 198 210 239 255 264 268 269 271 273 277 279 282 284 285 291
259 299 357 267 234 207 208 206 190 216 237 225 202 209 211 204 198 203 205 202 200 200 201 206 209 206 210 221 204 187 217 248 260 261 270 274 281 285 280 279 279 281 282 283
205 23 246 247 243 206 216 235 210 222 231 206 210 216 214 195 192 203 201 198 199 196 197 201 197 191 188 171 168 183 219 258 271 271 276 287 294 288 284 279 275 275 279 282
142 216 275 290 269 192 198 261 221 217 231 216 178 102 272 214 196 198 195 191 190 185 179 174 175 169 147 143 144 151 235 269 276 266 272 288 291 288 285 286 287 279 279 287
142 185 247 254 257 178 141 276 253 204 209 167 135 166 242 208 185 189 180 169 164 154 145 152 162 146 137 142 140 179 241 267 283 270 262 277 282 287 286 279 285 301 309 306
175 214 259 255 258 130 168 247 270 199 187 167 182 201 208 159 167 166 159 154 146 141 143 154 148 137 135 137 163 209 228 21 9 343 294 289 303 300 299 303 316 326 326 328
156 189 253 250 143 180 221 259 272 215 191 190 208 186 149 159 159 153 148 145 144 138 135 135 141 138 136 151 176 129 101 73 37 16 7 10 349 339 337 337 347 342 346 344
190 215 239 231 218 242 251 264 259 234 221 195 193 190 176 168 162 158 154 151 146 139 130 123 135 142 143 160 142 119 97 72 40 29 21 13 20 11 10 16 19 360 5 355
255 271 270 266 254 254 240 245 259 242 220 188 194 189 177 169 165 160 156 155 148 141 138 139 138 134 143 143 131 115 102 79 53 46 30 22 27 34 42 30 25 20 15 357
265 280 302 298 269 274 281 271 267 252 219 200 190 187 180 177 175 169 160 156 154 152 149 150 144 135 136 137 127 115 105 88 65 53 44 32 35 41 46 41 65 69 24 7
250 257 257 278 290 299 287 274 260 247 239 214 195 193 182 181 176 167 161 156 153 151 149 149 144 138 137 137 132 125 115 100 83 67 52 48 45 32 32 42 48 54 56 58
254 275 265 270 285 284 275 271 262 241 230 223 209 190 180 175 169 162 160 161 162 159 154 149 144 141 143 138 130 126 128 126 107 89 77 64 57 61 31 13 28 36 35 37
276 294 289 283 282 286 279 274 267 256 242 221 202 182 171 162 160 166 170 167 156 150 149 149 145 148 151 139 129 127 128 127 121 109 97 85 77 71 69 56 22 359 3 19
299 283 268 280 288 290 288 278 264 255 239 218 191 178 173 171 173 172 160 150 145 146 150 150 148 153 153 142 134 133 130 129 124 117 105 95 86 77 69 62 52 16 2 4
307 307 302 302 299 298 297 279 259 254 239 214 196 191 183 173 160 152 153 155 155 159 160 156 156 159 153 143 136 133 139 140 133 124 108 95 86 84 75 66 50 32 18 355
325 326 323 318 310 303 292 275 261 254 239 216 199 175 154 147 147 153 158 160 156 154 155 155 156 155 150 147 142 140 135 137 131 118 116 117 112 107 102 90 64 30 347 344
302 294 295 297 303 304 301 292 278 260 236 212 167 157 160 163 166 164 157 146 138 139 151 154 152 148 148 148 144 140 137 135 134 135 133 130 133 133 124 112 58 6 331 343
334 329 326 322 316 309 305 299 288 270 230 173 168 173 174 168 160 154 151 152 154 159 169 167 161 151 150 160 150 140 141 140 138 138 140 138 125 129 138 155 272 304 307 318
343 340 337 334 333 327 319 314 304 276 201 173 165 159 158 157 154 154 156 161 168 162 158 161 154 150 156 165 155 144 148 150 151 152 152 153 162 180 205 235 258 277 288 291
339 338 337 336 333 332 328 323 309 278 199 172 171 169 161 154 154 154 154 156 161 149 157 162 155 155 159 163 158 148 153 156 160 165 169 175 184 201 225 249 264 268 274 281
330 332 331 330 332 332 333 332 319 292 174 164 157 150 147 150 153 153 155 154 157 159 154 154 153 167 170 163 150 155 160 164 167 171 178 185 193 208 228 243 254 263 270 275
319 323 324 326 325 322 329 338 336 321 185 170 164 161 159 157 158 156 157 153 154 163 155 159 172 175 172 160 156 163 167 171 176 183 191 197 202 210 224 241 250 260 268 275
315 318 318 317 320 326 330 333 338 340 357 149 159 158 151 144 142 142 135 157 165 162 159 172 178 178 169 153 159 165 172 178 184 191 197 200 206 216 227 240 253 262 268 276
307 309 311 317 320 315 309 316 333 357 59 90 121 140 149 150 151 151 147 157 166 160 159 180 181 179 163 154 164 170 176 186 190 190 193 198 210 221 231 241 251 264 272 277
293 298 296 291 288 289 288 285 281 262 171 150 146 144 136 130 134 141 147 155 164 164 162 165 166 164 156 164 169 174 179 190 199 191 192 202 215 224 235 247 261 267 275 280
282 288 291 291 290 282 274 258 240 231 207 186 180 172 157 149 148 150 151 154 157 156 156 157 155 156 161 165 168 171 174 179 184 190 197 206 215 226 239 252 261 269 276 282